Wind_Speed
17 17 17 16 15 14 13 12 12 11 11 10 10 9 9 8 8 7 7 6 6 6 5 3 2 2 2 2 2 3 4 4 5 6 6 6 6 6 7 7 8 8 8
15 16 16 16 15 15 14 13 13 12 12 11 11 10 9 9 8 8 8 7 7 6 6 5 4 3 4 4 4 4 5 6 6 6 6 6 7 7 7 9 9 9 10
15 15 15 15 14 14 14 13 13 13 13 12 12 11 11 10 10 10 9 9 8 7 7 7 6 5 5 5 5 5 6 7 7 7 7 7 8 8 8 8 9 10 11
15 14 14 14 13 13 14 13 13 13 13 13 12 12 12 12 11 10 10 10 9 9 8 8 7 7 6 5 6 6 7 7 8 8 8 8 8 9 9 9 10 10 11
14 14 14 13 12 12 12 12 13 13 13 13 13 12 11 11 11 10 10 10 10 10 10 9 9 8 8 7 7 8 8 8 9 9 9 10 10 10 10 11 12 12 13
13 13 13 13 12 11 11 11 11 12 12 12 12 12 12 11 10 10 10 10 10 10 10 11 10 9 8 8 8 8 9 10 10 10 11 11 11 11 12 13 13 14 14
11 13 13 13 12 11 10 11 11 11 11 12 12 12 12 11 11 11 11 11 11 11 11 11 11 10 9 9 9 10 10 10 11 11 12 12 13 13 13 14 15 15 15
10 12 13 12 11 10 10 10 10 10 11 11 11 12 12 12 12 12 12 12 11 12 12 12 12 12 11 10 10 11 11 11 12 12 12 13 14 14 15 15 15 15 16
8 10 11 11 10 10 9 9 10 10 10 11 11 11 12 12 12 12 13 13 13 13 13 13 14 13 13 13 12 12 12 12 12 13 13 14 14 15 15 15 16 16 17
8 9 11 11 10 10 10 10 10 10 10 10 11 11 12 12 12 11 12 14 15 15 15 15 15 15 15 14 14 14 14 14 14 14 14 15 15 16 16 16 16 17 18
9 8 10 10 9 9 10 10 11 10 10 11 11 12 12 12 12 13 13 14 15 16 17 17 16 16 16 16 16 15 15 15 15 15 15 15 15 16 17 17 18 18 19
9 9 9 9 9 9 11 11 11 11 11 11 12 12 13 13 13 13 15 15 16 18 18 18 18 17 17 17 17 16 16 16 16 16 16 16 17 17 18 18 18 19 19
10 9 9 10 9 9 10 11 11 11 12 12 12 13 14 15 15 15 16 17 18 18 19 19 19 18 18 18 18 18 18 17 17 17 17 17 18 18 19 19 20 20 21
12 11 10 11 11 11 11 11 12 12 12 12 13 13 15 16 16 16 17 18 18 19 19 19 19 19 19 19 19 19 19 19 19 18 18 19 19 19 20 20 21 21 22
15 13 12 12 12 12 12 12 12 13 13 13 14 15 15 16 17 18 18 19 19 20 20 20 20 20 20 21 21 21 21 20 20 20 20 20 20 20 20 21 22 22 22
17 16 15 15 15 14 14 14 14 15 15 15 15 16 16 17 18 18 19 20 20 21 22 21 21 22 22 22 23 22 22 21 21 21 21 21 21 22 22 22 23 24 24
21 20 19 18 18 17 17 17 16 17 17 17 17 17 18 18 19 20 20 21 22 22 23 23 23 23 23 23 24 24 23 23 22 22 22 22 23 23 23 24 25 26 26
23 22 23 22 21 21 20 19 19 19 19 19 19 19 20 20 21 21 22 22 23 24 25 25 24 24 24 24 25 25 25 24 24 24 24 25 25 25 26 26 26 26 27
26 26 25 24 24 23 23 22 21 21 21 21 22 22 22 22 23 23 23 24 25 26 26 26 26 26 26 27 27 27 27 26 25 25 26 26 27 27 27 28 28 28 28
28 27 28 27 26 26 25 25 25 24 24 24 24 24 24 25 25 26 26 27 27 27 27 28 28 28 29 29 29 29 28 28 27 27 28 28 28 28 28 29 29 28 28
29 29 29 29 28 28 27 27 26 26 26 26 26 26 26 27 27 28 28 28 29 29 29 29 30 30 30 30 30 30 30 30 29 29 29 28 28 28 30 29 29 28 29
31 31 30 30 29 29 29 29 28 27 27 27 28 27 28 28 29 29 29 29 30 31 32 32 32 32 32 32 31 31 31 31 31 31 30 30 29 30 30 29 29 29 29
32 32 31 31 32 32 31 31 30 29 29 29 29 29 30 30 30 30 30 31 32 33 33 33 33 32 33 32 32 32 32 32 32 31 31 31 30 30 30 30 30 29 29
34 33 33 33 33 33 32 32 32 31 30 30 31 31 31 32 32 33 33 33 33 34 34 34 34 33 33 33 34 34 34 33 33 33 33 32 32 31 30 31 31 31 30
35 34 34 35 34 34 33 33 33 34 33 33 33 33 34 34 34 34 35 35 36 35 35 35 35 35 35 35 35 35 34 34 34 34 34 33 33 32 31 31 31 32 31
36 35 35 35 35 35 35 35 35 35 34 35 35 36 36 36 36 37 38 38 38 37 37 37 37 37 37 37 37 36 35 35 34 34 34 34 33 33 32 32 32 32 31
Wind_Direction
35 36 37 37 37 37 39 41 44 45 44 42 43 43 46 47 46 47 49 47 40 36 35 23 20 12 340 316 307 307 311 307 300 292 289 289 283 281 280 280 283 284 286
31 34 35 36 38 38 40 42 44 46 46 45 43 44 50 50 45 44 43 40 37 32 28 22 13 359 344 330 316 310 312 312 306 300 295 296 290 288 287 286 285 285 288
27 30 32 34 37 39 41 43 43 43 43 43 43 43 44 46 44 42 41 36 32 27 23 12 8 352 339 332 320 313 310 309 305 306 301 297 295 294 296 295 289 286 288
24 25 27 30 35 38 40 43 43 43 43 42 42 43 43 42 41 40 36 31 25 21 15 7 0 350 344 335 321 313 309 309 308 308 305 299 299 299 300 299 297 293 293
21 22 23 24 29 35 38 38 38 40 41 39 38 38 38 38 37 35 31 26 20 15 10 3 354 348 343 336 326 313 307 306 307 305 305 303 298 298 297 297 296 295 295
16 18 19 21 23 28 31 33 34 36 36 35 34 33 32 31 31 30 26 22 17 11 6 2 356 348 339 335 329 321 308 303 302 301 300 300 301 304 301 298 295 293 294
9 10 15 16 18 21 25 28 31 32 32 32 31 30 29 30 28 24 20 16 13 10 5 1 355 349 339 331 327 322 316 306 300 298 299 299 300 301 302 300 298 295 294
1 5 6 7 10 12 16 20 24 25 25 24 25 26 24 24 22 19 17 13 9 5 1 357 352 348 343 335 328 322 316 309 303 299 299 301 302 299 300 300 297 296 296
343 354 358 1 4 7 9 10 14 16 17 18 17 16 15 14 13 13 12 9 4 360 355 352 349 347 342 337 331 326 321 315 309 305 302 302 301 301 301 302 299 298 298
330 347 351 356 360 2 3 4 5 6 8 9 7 5 5 3 1 2 2 3 1 357 352 346 344 341 338 335 331 326 321 316 310 304 301 301 301 300 300 301 300 298 297
321 333 344 347 350 353 355 355 355 356 356 357 358 357 356 355 352 352 353 353 354 351 349 345 340 335 333 333 331 327 324 318 313 308 304 301 302 302 301 300 299 298 298
308 318 325 332 337 342 348 351 348 347 346 347 350 351 349 347 347 345 347 348 347 346 347 345 340 335 333 331 330 326 324 320 316 312 307 303 302 302 302 301 301 300 301
294 301 308 315 321 326 336 343 343 341 340 339 340 340 339 339 341 342 340 341 342 343 345 345 343 338 335 333 330 327 324 321 318 313 309 305 303 303 302 301 300 300 300
283 291 297 299 305 314 319 327 332 334 334 333 332 331 332 333 333 333 335 336 338 339 341 341 340 339 338 335 332 329 326 323 320 315 310 307 305 303 302 302 301 299 298
276 279 285 289 295 302 307 313 318 323 325 325 324 324 325 327 328 328 329 330 332 333 335 336 336 335 334 333 331 327 324 323 320 316 312 309 308 304 302 302 301 299 297
272 274 276 280 284 288 294 301 306 310 313 314 315 317 319 320 322 323 325 326 327 328 329 330 330 329 328 328 329 329 326 323 320 317 315 312 309 307 304 303 301 299 296
268 271 274 275 276 278 283 288 295 299 304 306 306 309 312 314 315 315 317 320 323 324 325 325 325 326 325 324 325 326 325 321 318 316 314 313 311 308 307 305 302 301 299
265 267 269 270 271 273 277 281 286 290 295 299 301 304 305 307 309 310 312 314 317 319 320 319 321 321 321 321 322 323 324 321 317 314 313 312 310 308 306 305 303 302 301
263 263 266 268 269 271 274 276 280 285 288 291 294 297 300 303 305 307 309 311 312 314 316 317 317 316 316 318 318 318 319 319 316 313 311 310 309 308 307 305 302 301 299
263 262 263 265 266 268 271 273 277 281 285 287 289 293 297 298 299 302 305 308 307 308 310 312 312 312 312 313 314 315 315 316 316 314 311 310 308 307 307 305 304 301 299
263 262 262 264 266 267 269 272 275 279 282 285 286 289 292 296 297 299 301 303 304 305 306 308 309 308 309 310 312 312 312 312 313 312 310 309 308 308 308 305 303 301 300
261 261 262 263 265 267 268 270 273 276 279 282 284 287 291 293 295 297 300 301 303 304 304 305 306 306 307 307 308 309 308 308 309 310 310 308 307 308 309 306 303 301 300
260 261 262 264 265 266 267 269 270 271 275 279 282 285 288 292 295 298 300 301 303 303 303 303 304 305 307 308 308 308 305 304 305 306 307 307 308 309 309 307 304 302 301
260 261 263 264 265 266 268 269 270 271 273 276 279 282 285 288 291 294 297 298 299 301 302 302 304 306 307 306 308 307 305 304 303 303 303 303 305 306 307 306 305 302 300
259 261 263 264 265 267 268 269 271 271 272 274 277 280 283 286 288 291 293 296 298 299 300 302 303 304 306 307 307 305 304 303 302 302 302 302 302 303 303 303 303 302 300
259 261 263 264 265 267 269 269 271 270 270 272 275 278 281 283 286 288 291 294 296 298 300 301 302 303 303 305 305 304 302 301 301 301 301 302 302 302 302 301 301 302 302
Height
5913 5911 5909 5907 5906 5904 5902 5901 5899 5898 5897 5896 5895 5894 5893 5892 5891 5891 5890 5890 5889 5889 5889 5888 5889 5889 5889 5889 5889 5889 5889 5889 5889 5889 5889 5888 5888 5888 5888 5887 5887 5887 5887
5916 5914 5912 5910 5908 5906 5905 5903 5902 5900 5899 5898 5896 5895 5894 5894 5893 5892 5891 5891 5890 5890 5889 5889 5889 5889 5889 5889 5888 5888 5888 5888 5888 5887 5887 5887 5887 5886 5886 5886 5886 5885 5885
5918 5916 5914 5912 5910 5909 5907 5905 5904 5903 5901 5900 5898 5897 5896 5895 5894 5893 5892 5892 5891 5890 5890 5890 5889 5889 5889 5888 5888 5888 5887 5887 5887 5886 5886 5886 5885 5885 5885 5884 5883 5883 5883
5919 5917 5916 5914 5912 5911 5909 5907 5906 5904 5903 5902 5900 5899 5898 5897 5896 5895 5894 5893 5892 5891 5891 5890 5890 5889 5888 5888 5887 5887 5886 5886 5885 5885 5884 5884 5883 5883 5883 5882 5881 5881 5880
5920 5919 5917 5916 5914 5913 5911 5910 5908 5907 5905 5904 5902 5901 5899 5898 5897 5896 5895 5894 5893 5892 5891 5890 5889 5888 5888 5887 5886 5886 5885 5884 5884 5883 5883 5882 5881 5881 5881 5880 5879 5879 5878
5922 5920 5918 5917 5915 5914 5913 5912 5910 5909 5907 5906 5904 5902 5901 5900 5899 5898 5896 5895 5894 5893 5892 5890 5889 5888 5887 5886 5885 5884 5883 5882 5882 5881 5881 5880 5879 5879 5878 5877 5876 5876 5875
5923 5921 5918 5918 5917 5916 5914 5913 5912 5910 5909 5907 5906 5904 5902 5901 5900 5898 5897 5896 5894 5893 5892 5890 5889 5887 5886 5885 5884 5883 5882 5881 5880 5879 5878 5877 5877 5876 5875 5874 5873 5872 5872
5923 5922 5921 5919 5918 5917 5915 5914 5913 5911 5910 5909 5907 5905 5904 5902 5901 5899 5898 5896 5895 5893 5892 5890 5888 5886 5885 5883 5882 5881 5879 5878 5877 5876 5875 5875 5874 5873 5872 5871 5870 5869 5868
5923 5922 5921 5919 5918 5917 5916 5915 5913 5912 5911 5909 5908 5907 5905 5903 5902 5900 5899 5897 5895 5894 5892 5890 5888 5886 5884 5882 5880 5879 5877 5876 5875 5874 5873 5872 5871 5870 5869 5868 5867 5866 5864
5922 5921 5921 5919 5918 5917 5916 5915 5914 5913 5911 5910 5909 5907 5906 5904 5902 5901 5899 5897 5895 5893 5891 5889 5887 5885 5883 5881 5879 5877 5875 5874 5872 5871 5870 5869 5868 5866 5865 5864 5863 5862 5861
5921 5920 5920 5919 5918 5917 5916 5915 5914 5913 5911 5910 5909 5907 5906 5904 5902 5901 5899 5897 5895 5892 5890 5887 5885 5883 5881 5879 5877 5875 5873 5871 5870 5868 5867 5866 5864 5863 5862 5860 5859 5858 5857
5919 5918 5918 5918 5917 5917 5916 5915 5913 5912 5911 5910 5908 5907 5906 5904 5902 5900 5899 5897 5894 5892 5889 5886 5883 5881 5879 5877 5875 5873 5871 5869 5867 5865 5864 5863 5861 5860 5858 5857 5855 5854 5852
5918 5917 5917 5917 5916 5916 5915 5914 5913 5912 5910 5909 5908 5906 5905 5903 5901 5900 5898 5896 5893 5891 5888 5885 5882 5880 5877 5875 5873 5871 5869 5866 5864 5862 5861 5859 5858 5856 5854 5853 5851 5850 5848
5915 5915 5916 5915 5915 5915 5914 5913 5912 5911 5910 5908 5907 5906 5904 5902 5900 5898 5897 5894 5892 5889 5886 5884 5881 5878 5876 5873 5871 5868 5866 5864 5861 5859 5857 5856 5854 5852 5850 5848 5847 5845 5843
5912 5912 5913 5913 5913 5913 5912 5911 5910 5909 5908 5907 5906 5904 5902 5901 5899 5897 5894 5892 5890 5887 5885 5882 5879 5877 5874 5871 5868 5866 5863 5861 5858 5856 5853 5851 5849 5847 5845 5843 5841 5839 5837
5909 5909 5909 5910 5911 5910 5910 5909 5908 5907 5906 5905 5903 5902 5900 5898 5896 5894 5892 5890 5887 5884 5882 5879 5877 5874 5871 5869 5866 5863 5860 5857 5854 5852 5849 5847 5845 5843 5840 5838 5836 5834 5832
5905 5905 5906 5906 5907 5907 5906 5906 5905 5904 5903 5902 5901 5899 5897 5896 5894 5891 5889 5887 5884 5882 5879 5876 5873 5871 5868 5865 5862 5859 5856 5853 5851 5848 5845 5843 5840 5838 5835 5833 5830 5828 5826
5900 5901 5901 5902 5902 5902 5902 5902 5901 5901 5900 5899 5897 5896 5894 5892 5890 5888 5885 5883 5881 5878 5875 5872 5870 5867 5864 5861 5858 5855 5852 5849 5846 5843 5840 5838 5835 5832 5830 5827 5824 5822 5819
5894 5895 5896 5896 5897 5897 5897 5897 5896 5896 5895 5894 5893 5891 5890 5888 5886 5883 5881 5879 5876 5874 5871 5868 5866 5863 5860 5857 5854 5851 5848 5844 5841 5838 5835 5832 5829 5826 5823 5821 5818 5815 5812
5888 5889 5890 5890 5891 5891 5891 5891 5891 5890 5890 5889 5887 5886 5885 5883 5881 5879 5876 5874 5871 5869 5866 5864 5861 5858 5855 5852 5849 5845 5842 5839 5836 5833 5829 5826 5823 5820 5817 5813 5810 5808 5805
5881 5882 5883 5883 5884 5884 5884 5884 5884 5884 5883 5882 5881 5880 5879 5877 5875 5873 5871 5868 5866 5863 5861 5858 5855 5852 5849 5846 5843 5839 5836 5833 5830 5827 5823 5820 5817 5813 5810 5806 5803 5800 5798
5873 5874 5875 5876 5877 5877 5877 5877 5877 5877 5876 5875 5874 5873 5872 5870 5868 5866 5864 5862 5859 5857 5854 5852 5849 5846 5843 5839 5836 5833 5829 5826 5823 5820 5816 5813 5810 5806 5803 5799 5796 5793 5791
5865 5866 5867 5868 5868 5869 5868 5869 5869 5869 5868 5868 5867 5866 5864 5863 5861 5859 5857 5854 5852 5850 5847 5844 5842 5839 5835 5832 5829 5826 5822 5819 5816 5813 5810 5806 5803 5800 5796 5793 5790 5787 5784
5856 5857 5858 5859 5860 5859 5859 5860 5860 5860 5860 5860 5859 5858 5857 5855 5854 5852 5849 5847 5844 5842 5839 5836 5834 5831 5828 5825 5821 5818 5814 5811 5808 5805 5802 5799 5796 5793 5790 5786 5783 5780 5777
5847 5848 5849 5850 5850 5851 5851 5851 5851 5851 5851 5851 5850 5849 5848 5847 5845 5843 5841 5839 5836 5833 5830 5828 5825 5822 5820 5817 5813 5809 5806 5803 5800 5797 5794 5791 5788 5785 5782 5779 5776 5772 5769
5837 5839 5839 5840 5841 5842 5842 5842 5842 5841 5841 5841 5840 5840 5839 5838 5836 5834 5833 5830 5828 5824 5821 5819 5817 5813 5811 5807 5804 5801 5797 5794 5792 5789 5786 5783 5780 5777 5774 5771 5767 5764 5761